Regional Weather Roundup
Issued by NWS State College, PA

Home | Current Version | Previous Version | Graphics & Text | Print | Product List | Glossary On
Versions: 1 2 3 4 5 6 7 8 9 10 11 12 13 14 15 16 17 18 19 20 21 22 23 24 25 26 27 28 29 30 31 32 33 34 35 36 37 38 39 40 41 42 43 44 45 46 47 48 49 50
000
ASUS41 KCTP 011703
RWRCTP

REGIONAL WEATHER ROUNDUP
NATIONAL WEATHER SERVICE STATE COLLEGE PA
100 PM EDT WED JUL 01 2015

Note: "fair" indicates few or no clouds below 12,000 feet with no
significant weather and/or obstructions to visibility.

* = STATION THAT DOES NOT REPORT PRECIPITATION /E.G. RAIN...SNOW...ETC/
    THUNDER OR FOG.

PAZ002>004-007>009-013>016-020>023-029>032-011800-
WESTERN PENNSYLVANIA

CITY           SKY/WX    TMP DP  RH WIND       PRES   REMARKS
ERIE           PTSUNNY   66  57  72 W14       29.89R
MEADVILLE      PTSUNNY   69  58  67 W10       29.90S
FRANKLIN*      CLOUDY    66  57  72 NW10      29.91S
NEW CASTLE     PTSUNNY   72  62  70 W8        29.91S
BEAVER COUNTY  PTSUNNY   70  63  78 SW7       29.91S
BUTLER*        PTSUNNY   72  63  73 W9        29.92S
PITTSBURGH INT CLOUDY    68  60  75 NW10      29.93R
PITTSBURGH     CLOUDY    68  57  68 W8        29.92S
INDIANA*       CLOUDY    68  63  83 SW13G18   29.95S
LATROBE        CLOUDY    68  63  83 W12       29.95R
WASHINGTON CO* NOT AVBL
$$

PAZ004>006-010>012-017>019-024>028-033>037-041-042-045-046-049>053-011800-
CENTRAL PENNSYLVANIA

CITY           SKY/WX    TMP DP  RH WIND       PRES   REMARKS
BRADFORD       CLOUDY    68  57  68 W18G24    29.87R
DUBOIS         CLOUDY    67  61  81 W12       29.89R
CLEARFIELD     PTSUNNY   69  59  70 SW16G22   29.88S
JOHNSTOWN      CLOUDY    63  56  78 SW14      29.95R
ALTOONA        CLOUDY    71  57  61 W13G21    29.92S
STATE COLLEGE  CLOUDY    72  61  68 W14       29.88S
WILLIAMSPORT   CLOUDY    74  60  61 W13       29.81S
SELINSGROVE    MOSUNNY   77  61  57 VRB5      29.84S
FT INDIANTOWN  MOSUNNY   78  62  59 VRB5      29.84R
CAPITAL CITY   MOSUNNY   80  61  52 W14G22    29.84S
HARRISBURG     MOSUNNY   79  62  56 W15       29.83S
YORK           SUNNY     79  63  57 W13       29.86S
$$

PAZ038>040-043-044-047-048-054-055-060>062-067>071-011800-
EASTERN PENNSYLVANIA

CITY           SKY/WX    TMP DP  RH WIND       PRES   REMARKS
SCRANTON       CLOUDY    72  60  66 SW9G17    29.83R
MOUNT POCONO   CLOUDY    68  58  70 W16G23    29.86S
ALLENTOWN      PTSUNNY   78  64  61 W8G25     29.82S
QUAKERTOWN*    PTSUNNY   77  64  65 W6        29.84S
READING        PTSUNNY   78  64  61 W8        29.82S
LANCASTER      PTSUNNY   77  63  61 W14       29.84S
COATESVILLE    MOSUNNY   77  66  69 SW6       29.87R
POTTSTOWN      PTSUNNY   78  63  59 SW9G17    29.85R
BLUE BELL      MOSUNNY   81  66  61 W6        29.82S
DOYLESTOWN     MOSUNNY   80  63  55 SW12      29.82S
WILLOW GROVE   NOT AVBL
NORTH PHILA    MOSUNNY   82  62  50 SW8G17    29.83S
PHILADELPHIA   MOSUNNY   83  61  47 SW13      29.83S
$$


USA.gov is the U.S. government's official web portal to all federal, state and local government web resources and services.